| time (UTC) | temp F | wind direction | speed MPH | gust MPH | rain 1hr in | rain 24hr in | rain mn in | humidity % | barometer mb |
| 20260831160052 | 80 | 78 | 0.0 | 0.0 | 0.00 | 0.07 | 0.00 | 33 | 1022.6 |
| 20260831154549 | 79 | 27 | 0.0 | 0.0 | 0.00 | 0.07 | 0.00 | 34 | 1022.7 |
| 20260831153009 | 79 | 60 | 0.0 | 0.0 | 0.00 | 0.07 | 0.00 | 35 | 1022.5 |
| 20260831151600 | 77 | 34 | 0.0 | 0.0 | 0.00 | 0.07 | 0.00 | 37 | 1022.7 |
| 20260831144607 | 75 | 29 | 0.0 | 0.0 | 0.00 | 0.07 | 0.00 | 39 | 1022.7 |
| 20260831143029 | 76 | 8 | 3.0 | 6.0 | 0.00 | 0.07 | 0.00 | 38 | 1022.6 |
| 20260831141526 | 74 | 21 | 2.0 | 6.0 | 0.00 | 0.07 | 0.00 | 41 | 1022.5 |
| 20260831140027 | 72 | 24 | 0.0 | 0.0 | 0.00 | 0.07 | 0.00 | 46 | 1022.2 |
| 20260831134526 | 68 | 58 | 0.0 | 0.0 | 0.00 | 0.07 | 0.00 | 54 | 1022.1 |
| 20260831133032 | 67 | 55 | 0.0 | 0.0 | 0.00 | 0.07 | 0.00 | 54 | 1022.1 |
| 20260831131521 | 64 | 9 | 0.0 | 0.0 | 0.00 | 0.07 | 0.00 | 59 | 1021.9 |
| 20260831130019 | 64 | 323 | 0.0 | 0.0 | 0.00 | 0.07 | 0.00 | 59 | 1021.8 |
| 20260831124519 | 63 | 66 | 0.0 | 0.0 | 0.00 | 0.07 | 0.00 | 59 | 1021.7 |
| 20260831123015 | 62 | 46 | 0.0 | 0.0 | 0.00 | 0.07 | 0.00 | 63 | 1021.6 |
| 20260831121512 | 64 | 76 | 0.0 | 0.0 | 0.00 | 0.07 | 0.00 | 60 | 1021.6 |
| 20260831120009 | 65 | 86 | 0.0 | 0.0 | 0.00 | 0.07 | 0.00 | 56 | 1021.3 |
| 20260831114507 | 65 | 94 | 0.0 | 0.0 | 0.00 | 0.07 | 0.00 | 56 | 1021.3 |
| 20260831113004 | 65 | 34 | 0.0 | 0.0 | 0.00 | 0.07 | 0.00 | 56 | 1021.3 |
| 20260831111501 | 66 | 83 | 0.0 | 0.0 | 0.00 | 0.07 | 0.00 | 57 | 1021.3 |
| 20260831110101 | 67 | 121 | 0.0 | 0.0 | 0.00 | 0.07 | 0.00 | 53 | 1020.9 |
| 20260831104555 | 68 | 152 | 0.0 | 0.0 | 0.00 | 0.07 | 0.00 | 50 | 1021.0 |
| 20260831103059 | 70 | 124 | 0.0 | 0.0 | 0.00 | 0.07 | 0.00 | 45 | 1021.0 |
| 20260831101555 | 71 | 107 | 0.0 | 2.0 | 0.00 | 0.07 | 0.00 | 44 | 1020.9 |
| 20260831100049 | 72 | 110 | 0.0 | 3.0 | 0.00 | 0.07 | 0.00 | 43 | 1020.9 |
| 20260831094547 | 72 | 118 | 0.0 | 1.0 | 0.00 | 0.07 | 0.00 | 43 | 1020.9 |
| 20260831093045 | 71 | 111 | 0.0 | 0.0 | 0.00 | 0.07 | 0.00 | 45 | 1021.1 |
| 20260831091555 | 72 | 106 | 0.0 | 0.0 | 0.00 | 0.07 | 0.00 | 45 | 1021.0 |
| 20260831090038 | 74 | 126 | 0.0 | 0.0 | 0.00 | 0.07 | 0.00 | 40 | 1021.0 |
| 20260831084539 | 74 | 107 | 0.0 | 8.0 | 0.00 | 0.07 | 0.00 | 40 | 1021.1 |
| 20260831083033 | 75 | 113 | 2.0 | 7.0 | 0.00 | 0.07 | 0.00 | 38 | 1020.9 |
| 20260831081537 | 76 | 106 | 5.0 | 14.0 | 0.00 | 0.07 | 0.00 | 36 | 1020.7 |
| 20260831080055 | 75 | 98 | 1.0 | 9.0 | 0.00 | 0.07 | 0.00 | 39 | 1020.8 |
| 20260831074529 | 75 | 85 | 6.0 | 10.0 | 0.00 | 0.07 | 0.00 | 38 | 1020.8 |
| 20260831073055 | 75 | 80 | 5.0 | 10.0 | 0.00 | 0.07 | 0.00 | 39 | 1020.7 |
| 20260831071523 | 75 | 102 | 8.0 | 10.0 | 0.00 | 0.07 | 0.00 | 39 | 1020.7 |
| 20260831070027 | 76 | 138 | 2.0 | 12.0 | 0.00 | 0.07 | 0.00 | 38 | 1020.7 |
| 20260831064520 | 77 | 89 | 9.0 | 12.0 | 0.00 | 0.07 | 0.00 | 36 | 1020.8 |
| 20260831063024 | 77 | 94 | 8.0 | 12.0 | 0.00 | 0.07 | 0.00 | 37 | 1020.8 |
| 20260831061513 | 76 | 83 | 0.0 | 7.0 | 0.00 | 0.07 | 0.00 | 40 | 1020.9 |
| 20260831060012 | 76 | 76 | 2.0 | 9.0 | 0.00 | 0.07 | 0.00 | 39 | 1020.9 |
| 20260831054514 | 76 | 97 | 6.0 | 10.0 | 0.00 | 0.07 | 0.07 | 41 | 1021.0 |
| 20260831053008 | 77 | 91 | 1.0 | 4.0 | 0.00 | 0.07 | 0.07 | 43 | 1021.1 |
| 20260831051506 | 80 | 47 | 0.0 | 4.0 | 0.00 | 0.07 | 0.07 | 36 | 1021.2 |
| 20260831050004 | 79 | 270 | 9.0 | 14.0 | 0.00 | 0.07 | 0.07 | 39 | 1021.1 |
| 20260831044605 | 80 | 204 | 15.0 | 20.0 | 0.00 | 0.07 | 0.07 | 35 | 1021.2 |
| 20260831043055 | 77 | 162 | 4.0 | 8.0 | 0.00 | 0.07 | 0.07 | 47 | 1021.3 |
| 20260831041603 | 77 | 126 | 4.0 | 9.0 | 0.00 | 0.07 | 0.07 | 50 | 1021.4 |
| 20260831040045 | 79 | 114 | 0.0 | 6.0 | 0.00 | 0.07 | 0.07 | 45 | 1021.3 |
| 20260831034541 | 82 | 86 | 6.0 | 12.0 | 0.00 | 0.07 | 0.07 | 35 | 1020.9 |
| 20260831033043 | 82 | 233 | 3.0 | 12.0 | 0.00 | 0.07 | 0.07 | 33 | 1020.5 |
| 20260831031538 | 80 | 176 | 2.0 | 6.0 | 0.00 | 0.07 | 0.07 | 36 | 1020.6 |
| 20260831030037 | 82 | 271 | 1.0 | 8.0 | 0.00 | 0.07 | 0.07 | 34 | 1020.0 |
| 20260831024537 | 82 | 268 | 2.0 | 8.0 | 0.00 | 0.07 | 0.07 | 34 | 1019.9 |
| 20260831023035 | 83 | 287 | 5.0 | 14.0 | 0.00 | 0.07 | 0.07 | 31 | 1019.7 |
| 20260831021544 | 84 | 280 | 0.0 | 2.0 | 0.00 | 0.07 | 0.07 | 31 | 1020.1 |
| 20260831020028 | 84 | 160 | 0.0 | 14.0 | 0.00 | 0.07 | 0.07 | 31 | 1019.9 |
| 20260831014523 | 80 | 131 | 5.0 | 14.0 | 0.00 | 0.07 | 0.07 | 37 | 1019.4 |
| 20260831013018 | 82 | 140 | 11.0 | 19.0 | 0.00 | 0.07 | 0.07 | 35 | 1019.4 |
| 20260831011533 | 82 | 121 | 14.0 | 21.0 | 0.00 | 0.07 | 0.07 | 36 | 1018.9 |
| 20260831010009 | 83 | 117 | 1.0 | 7.0 | 0.07 | 0.07 | 0.07 | 47 | 1018.9 |
| 20260831004506 | 80 | 121 | 0.0 | 8.0 | 0.07 | 0.07 | 0.07 | 61 | 1018.8 |
| 20260831003005 | 69 | 84 | 7.0 | 17.0 | 0.07 | 0.07 | 0.07 | 1 | 1019.0 |
| 20260831001556 | 69 | 83 | 15.0 | 22.0 | 0.07 | 0.07 | 0.07 | 29 | 1019.1 |
| 20260830234550 | 96 | 178 | 0.0 | 8.0 | 0.00 | 0.00 | 0.00 | 17 | 1018.4 |
| 20260830233006 | 96 | 272 | 0.0 | 10.0 | 0.00 | 0.00 | 0.00 | 17 | 1018.4 |
| 20260830231552 | 96 | 195 | 2.0 | 11.0 | 0.00 | 0.00 | 0.00 | 18 | 1018.6 |
| 20260830224543 | 96 | 270 | 0.0 | 4.0 | 0.00 | 0.00 | 0.00 | 17 | 1018.7 |
| 20260830223019 | 95 | 358 | 0.0 | 8.0 | 0.00 | 0.00 | 0.00 | 18 | 1018.8 |
| 20260830221556 | 96 | 222 | 4.0 | 18.0 | 0.00 | 0.00 | 0.00 | 17 | 1018.8 |
| 20260830214552 | 95 | 295 | 0.0 | 7.0 | 0.00 | 0.00 | 0.00 | 18 | 1019.3 |
| 20260830213014 | 96 | 150 | 3.0 | 10.0 | 0.00 | 0.00 | 0.00 | 17 | 1019.7 |
| 20260830211602 | 95 | 182 | 4.0 | 12.0 | 0.00 | 0.00 | 0.00 | 18 | 1019.8 |
| 20260830204531 | 95 | 194 | 2.0 | 12.0 | 0.00 | 0.00 | 0.00 | 18 | 1020.3 |
| 20260830203111 | 95 | 208 | 3.0 | 11.0 | 0.00 | 0.00 | 0.00 | 17 | 1020.6 |
| 20260830201532 | 94 | 222 | 3.0 | 9.0 | 0.00 | 0.00 | 0.00 | 19 | 1020.9 |
| 20260830200004 | 94 | 190 | 7.0 | 11.0 | 0.00 | 0.00 | 0.00 | 20 | 1021.0 |
| 20260830194502 | 94 | 29 | 0.0 | 7.0 | 0.00 | 0.00 | 0.00 | 20 | 1021.3 |
| 20260830193058 | 93 | 215 | 1.0 | 7.0 | 0.00 | 0.00 | 0.00 | 22 | 1021.5 |
| 20260830191553 | 91 | 204 | 0.0 | 8.0 | 0.00 | 0.00 | 0.00 | 23 | 1021.7 |
| 20260830190051 | 92 | 315 | 2.0 | 6.0 | 0.00 | 0.00 | 0.00 | 23 | 1021.8 |
| 20260830184547 | 91 | 275 | 2.0 | 11.0 | 0.00 | 0.00 | 0.00 | 24 | 1022.0 |
| 20260830183046 | 91 | 198 | 2.0 | 6.0 | 0.00 | 0.00 | 0.00 | 24 | 1022.4 |
| 20260830181540 | 89 | 36 | 1.0 | 7.0 | 0.00 | 0.00 | 0.00 | 26 | 1022.8 |
| 20260830180039 | 88 | 18 | 0.0 | 5.0 | 0.00 | 0.00 | 0.00 | 27 | 1022.9 |
| 20260830174550 | 88 | 204 | 0.0 | 6.0 | 0.00 | 0.00 | 0.00 | 27 | 1023.0 |
| 20260830173034 | 87 | 358 | 2.0 | 6.0 | 0.00 | 0.00 | 0.00 | 28 | 1023.3 |
| 20260830171525 | 86 | 278 | 1.0 | 7.0 | 0.00 | 0.00 | 0.00 | 28 | 1023.4 |
| 20260830170020 | 86 | 232 | 0.0 | 8.0 | 0.00 | 0.00 | 0.00 | 29 | 1023.6 |
| 20260830164522 | 85 | 292 | 0.0 | 10.0 | 0.00 | 0.00 | 0.00 | 30 | 1023.8 |
| 20260830163014 | 84 | 328 | 0.0 | 4.0 | 0.00 | 0.00 | 0.00 | 30 | 1023.8 |
| 20260830161506 | 83 | 274 | 1.0 | 8.0 | 0.00 | 0.00 | 0.00 | 32 | 1023.9 |